When you browse on this site, cookies collect data to enhance your experience and personalize the content and advertising you see.
Visit our Privacy Policy to learn more. By continuing to use the site, you agree to this use of cookies and data.
  • In Hungary
  • List of Countries
  • For 7 days
  • Water Temperature
  • Satellite Maps
  • Weather Map
  • News
  • Weather Widgets
  • user-avatar
    Login

    Hourly Weather Selm

    Today, 23 February, Saturday

    Time Temperature Precipitation Wind Pressure Humidity
    00:00 +6°C° 0 mm 2 mps 774 mmHg 93%
    01:00 +5°C° 0 mm 2 mps 774 mmHg 93%
    02:00 +5°C° 0 mm 2 mps 774 mmHg 92%
    03:00 +5°C° 0 mm 2 mps 773 mmHg 92%
    04:00 +4°C° 0 mm 2 mps 774 mmHg 89%
    05:00 +4°C° 0 mm 2 mps 774 mmHg 87%
    06:00 +3°C° 0 mm 2 mps 774 mmHg 85%
    07:00 +4°C° 0 mm 2 mps 774 mmHg 78%
    08:00 +5°C° 0 mm 2 mps 774 mmHg 72%
    09:00 +6°C° 0 mm 2 mps 774 mmHg 65%
    10:00 +7°C° 0 mm 2 mps 774 mmHg 56%
    11:00 +9°C° 0 mm 2 mps 773 mmHg 48%
    12:00 +10°C° 0 mm 2 mps 773 mmHg 39%
    13:00 +12°C° 0 mm 2 mps 773 mmHg 38%
    14:00 +12°C° 0 mm 2 mps 773 mmHg 37%
    15:00 +13°C° 0 mm 2 mps 773 mmHg 36%
    16:00 +12°C° 0 mm 2 mps 773 mmHg 40%
    17:00 +10°C° 0 mm 1 mps 773 mmHg 44%
    18:00 +9°C° 0 mm 1 mps 773 mmHg 48%
    19:00 +8°C° 0 mm 1 mps 773 mmHg 49%
    20:00 +8°C° 0 mm 1 mps 774 mmHg 50%
    21:00 +7°C° 0 mm 1 mps 774 mmHg 51%
    22:00 +7°C° 0 mm 1 mps 774 mmHg 50%
    23:00 +6°C° 0 mm 1 mps 774 mmHg 48%

    Tomorrow, 24 February, Sunday

    Time Temperature Precipitation Wind Pressure Humidity
    00:00 +5°C° 0 mm 2 mps 774 mmHg 47%
    01:00 +6°C° 0 mm 1 mps 774 mmHg 45%
    02:00 +6°C° 0 mm 1 mps 773 mmHg 43%
    03:00 +5°C° 0 mm 1 mps 773 mmHg 41%
    04:00 +5°C° 0 mm 1 mps 773 mmHg 40%
    05:00 +5°C° 0 mm 1 mps 773 mmHg 39%
    06:00 +5°C° 0 mm 1 mps 773 mmHg 38%
    07:00 +6°C° 0 mm 1 mps 773 mmHg 36%
    08:00 +7°C° 0 mm 1 mps 774 mmHg 34%
    09:00 +7°C° 0 mm 0 mps 774 mmHg 33%
    10:00 +10°C° 0 mm 1 mps 774 mmHg 30%
    11:00 +11°C° 0 mm 1 mps 774 mmHg 28%
    12:00 +13°C° 0 mm 1 mps 774 mmHg 25%
    13:00 +13°C° 0 mm 1 mps 774 mmHg 27%
    14:00 +14°C° 0 mm 1 mps 774 mmHg 28%
    15:00 +14°C° 0 mm 1 mps 773 mmHg 29%
    16:00 +13°C° 0 mm 1 mps 773 mmHg 33%
    17:00 +11°C° 0 mm 1 mps 773 mmHg 36%
    18:00 +10°C° 0 mm 1 mps 774 mmHg 40%
    19:00 +10°C° 0 mm 1 mps 774 mmHg 42%
    20:00 +9°C° 0 mm 1 mps 774 mmHg 44%
    21:00 +8°C° 0 mm 0 mps 774 mmHg 46%
    22:00 +8°C° 0 mm 1 mps 774 mmHg 47%
    23:00 +8°C° 0 mm 1 mps 774 mmHg 48%

    Day after tomorrow, 25 February, Monday

    Time Temperature Precipitation Wind Pressure Humidity
    00:00 +8°C° 0 mm 1 mps 774 mmHg 49%
    01:00 +8°C° 0 mm 1 mps 774 mmHg 50%
    02:00 +7°C° 0 mm 1 mps 774 mmHg 52%
    03:00 +7°C° 0 mm 1 mps 774 mmHg 53%
    04:00 +7°C° 0 mm 1 mps 774 mmHg 53%
    05:00 +7°C° 0 mm 1 mps 774 mmHg 53%
    06:00 +7°C° 0 mm 1 mps 774 mmHg 53%
    07:00 +7°C° 0 mm 0 mps 774 mmHg 51%
    08:00 +8°C° 0 mm 0 mps 774 mmHg 49%
    09:00 +9°C° 0 mm 0 mps 774 mmHg 47%
    10:00 +11°C° 0 mm 0 mps 774 mmHg 44%
    11:00 +12°C° 0 mm 0 mps 774 mmHg 40%
    12:00 +15°C° 0 mm 1 mps 773 mmHg 37%
    13:00 +15°C° 0 mm 1 mps 773 mmHg 38%
    14:00 +16°C° 0 mm 1 mps 773 mmHg 39%
    15:00 +16°C° 0 mm 1 mps 773 mmHg 39%
    16:00 +14°C° 0 mm 1 mps 773 mmHg 44%
    17:00 +13°C° 0 mm 1 mps 773 mmHg 48%
    18:00 +11°C° 0 mm 1 mps 773 mmHg 52%
    19:00 +11°C° 0 mm 1 mps 773 mmHg 54%
    20:00 +10°C° 0 mm 1 mps 773 mmHg 56%
    21:00 +10°C° 0 mm 1 mps 773 mmHg 58%
    22:00 +10°C° 0 mm 1 mps 773 mmHg 59%
    23:00 +9°C° 0 mm 1 mps 772 mmHg 60%

    26 February, Tuesday

    Time Temperature Precipitation Wind Pressure Humidity
    00:00 +9°C° 0 mm 1 mps 772 mmHg 61%
    01:00 +9°C° 0 mm 1 mps 772 mmHg 62%
    02:00 +7°C° 0 mm 0 mps 772 mmHg 64%
    03:00 +7°C° 0 mm 0 mps 772 mmHg 65%
    04:00 +7°C° 0 mm 0 mps 772 mmHg 66%
    05:00 +8°C° 0 mm 1 mps 771 mmHg 67%
    06:00 +8°C° 0 mm 1 mps 771 mmHg 68%
    07:00 +8°C° 0 mm 0 mps 771 mmHg 65%
    08:00 +9°C° 0 mm 0 mps 771 mmHg 62%
    09:00 +10°C° 0 mm 0 mps 772 mmHg 59%
    10:00 +12°C° 0 mm 0 mps 771 mmHg 55%
    11:00 +14°C° 0 mm 1 mps 771 mmHg 50%
    12:00 +16°C° 0 mm 1 mps 771 mmHg 46%
    13:00 +16°C° 0 mm 1 mps 771 mmHg 46%
    14:00 +16°C° 0 mm 1 mps 770 mmHg 45%
    15:00 +18°C° 0 mm 1 mps 770 mmHg 45%
    16:00 +15°C° 0 mm 1 mps 770 mmHg 50%
    17:00 +13°C° 0 mm 0 mps 770 mmHg 55%
    18:00 +11°C° 0 mm 0 mps 770 mmHg 60%
    19:00 +11°C° 0 mm 0 mps 770 mmHg 62%
    20:00 +10°C° 0 mm 0 mps 770 mmHg 63%
    21:00 +10°C° 0 mm 0 mps 770 mmHg 65%
    22:00 +9°C° 0 mm 0 mps 770 mmHg 66%
    23:00 +9°C° 0 mm 0 mps 769 mmHg 66%

    27 February, Wednesday

    Time Temperature Precipitation Wind Pressure Humidity
    00:00 +8°C° 0 mm 0 mps 769 mmHg 67%
    01:00 +8°C° 0 mm 0 mps 769 mmHg 67%
    02:00 +9°C° 0 mm 1 mps 768 mmHg 68%
    03:00 +9°C° 0 mm 1 mps 768 mmHg 68%
    04:00 +8°C° 0 mm 1 mps 768 mmHg 69%
    05:00 +7°C° 0 mm 0 mps 767 mmHg 71%
    06:00 +7°C° 0 mm 0 mps 767 mmHg 72%
    07:00 +8°C° 0 mm 0 mps 767 mmHg 68%
    08:00 +10°C° 0 mm 0 mps 767 mmHg 64%
    09:00 +11°C° 0 mm 0 mps 767 mmHg 59%
    10:00 +13°C° 0 mm 1 mps 766 mmHg 54%
    11:00 +15°C° 0 mm 1 mps 766 mmHg 49%
    12:00 +16°C° 0 mm 1 mps 765 mmHg 44%
    13:00 +18°C° 0 mm 1 mps 764 mmHg 43%
    14:00 +18°C° 0 mm 1 mps 764 mmHg 42%
    15:00 +18°C° 0 mm 2 mps 763 mmHg 42%
    16:00 +16°C° 0 mm 1 mps 763 mmHg 46%
    17:00 +14°C° 0 mm 1 mps 763 mmHg 50%
    18:00 +13°C° 0 mm 1 mps 762 mmHg 54%
    19:00 +12°C° 0 mm 1 mps 762 mmHg 55%
    20:00 +12°C° 0 mm 2 mps 762 mmHg 56%
    21:00 +10°C° 0 mm 2 mps 762 mmHg 58%
    22:00 +10°C° 0 mm 2 mps 761 mmHg 62%
    23:00 +9°C° 0 mm 2 mps 761 mmHg 65%

    28 February, Thursday

    Time Temperature Precipitation Wind Pressure Humidity
    00:00 +9°C° 0 mm 3 mps 761 mmHg 69%
    01:00 +8°C° 0 mm 3 mps 761 mmHg 74%
    02:00 +8°C° 0 mm 3 mps 760 mmHg 80%
    03:00 +7°C° 0 mm 2 mps 760 mmHg 85%
    04:00 +7°C° 0 mm 2 mps 760 mmHg 87%
    05:00 +7°C° 0 mm 3 mps 760 mmHg 90%
    06:00 +5°C° 0 mm 3 mps 760 mmHg 92%
    07:00 +7°C° 0 mm 3 mps 760 mmHg 90%
    08:00 +8°C° 0 mm 3 mps 760 mmHg 88%
    09:00 +9°C° 0 mm 3 mps 760 mmHg 86%
    10:00 +9°C° 0 mm 3 mps 760 mmHg 84%
    11:00 +10°C° 0 mm 4 mps 760 mmHg 82%
    12:00 +11°C° 0 mm 4 mps 759 mmHg 80%
    13:00 +11°C° 0 mm 3 mps 759 mmHg 78%
    14:00 +12°C° 0 mm 3 mps 759 mmHg 76%
    15:00 +12°C° 0 mm 3 mps 759 mmHg 73%
    16:00 +11°C° 0 mm 3 mps 759 mmHg 75%
    17:00 +12°C° 0 mm 2 mps 759 mmHg 76%
    18:00 +10°C° 0 mm 2 mps 759 mmHg 78%
    19:00 +9°C° 0 mm 2 mps 760 mmHg 80%
    20:00 +9°C° 0 mm 2 mps 760 mmHg 82%
    21:00 +8°C° 0 mm 3 mps 760 mmHg 83%
    22:00 +7°C° 0 mm 3 mps 760 mmHg 86%
    23:00 +7°C° 0 mm 2 mps 760 mmHg 89%
    Show more